Home   Weather   Guelph   Past weeks

Flag for Canada Past Weather in Guelph, Ontario, Canada — Yesterday and Last 2 Weeks

Now
36 °F

Overcast.


Feels Like: 31 °F
Forecast: 25 / 36 °F
Wind: 6 mph from Southwest

Location: Waterloo Well

Current Time: Dec 5, 2016 at 10:08:25 pm

Latest Report: Dec 5, 2016 at 9:00 pm


Visibility: 9 mi

Pressure: 30.09 "Hg

Humidity: 81%

Dew Point: 30 °F

Location of GuelphLocation

Past Weather in Guelph — Graph

°F

Guelph Temperature Yesterday

Maximum temperature yesterday: 36 °F (at 11:00 am)
Minimum temperature yesterday: 32 °F (at 7:00 am)
Average temperature yesterday: 34 °F

High & Low Weather Summary for the Past Weeks

 TemperatureHumidityPressure
High55 °F (Nov 29, 2:00 pm)100% (Nov 22, 10:02 pm)30.38 "Hg (Nov 22, 10:02 pm)
Low19 °F (Nov 23, 6:00 am)59% (Nov 21, 11:00 am)29.46 "Hg (Nov 30, 9:00 pm)
Average36 °F86%30.01 "Hg
* Reported Nov 20 9:00 pm — Dec 5 9:00 pm, Guelph, Weather by CustomWeather, © 2016

Note: Actual official high and low records may vary slightly from our data, if they occured in-between our weather recording intervals... More about our weather records

Advertising

Guelph Weather History for the Previous 24 Hours

Scroll right to see more
 ConditionsComfort  
Time TempWeatherWind HumidityBarometerVisibility
9:00 pm
Mon, Dec 5
36 °FOvercast.6 mph81%30.09 "Hg9 mi
8:00 pm37 °FMostly cloudy.7 mph75%30.09 "Hg9 mi
7:00 pm37 °FOvercast.8 mph81%30.07 "Hg9 mi
6:00 pm37 °FOvercast.9 mph75%30.06 "Hg9 mi
5:00 pm37 °FOvercast.9 mph75%30.03 "Hg9 mi
4:00 pm37 °FPartly sunny.12 mph75%30.01 "Hg9 mi
3:00 pm37 °FOvercast.15 mph70%30.00 "Hg9 mi
2:03 pm37 °FCloudy.13 mph81%29.99 "Hg9 mi
1:00 pm37 °FPartly sunny.17 mph75%29.96 "Hg9 mi
12:00 pm37 °FBroken clouds.13 mph75%29.95 "Hg9 mi
11:00 am36 °FMore clouds than sun.20 mph81%29.96 "Hg9 mi
10:00 am36 °FMostly cloudy.16 mph87%29.96 "Hg9 mi
9:03 am34 °FMore clouds than sun.10 mph93%29.92 "Hg9 mi
8:00 am34 °FMore clouds than sun.14 mph93%29.90 "Hg9 mi
7:57 am34 °FMore clouds than sun.14 mph93%29.90 "Hg9 mi
7:00 am34 °FMostly cloudy.14 mph87%29.87 "Hg9 mi
6:56 am34 °FMostly cloudy.14 mph93%29.86 "Hg9 mi
6:00 am34 °FOvercast.17 mph93%29.83 "Hg9 mi
5:59 am34 °FOvercast.16 mph93%29.83 "Hg9 mi
5:00 am32 °FLight snow. Overcast.5 mph100%29.81 "Hg3 mi
4:47 am32 °FLight snow. Low clouds.3 mph100%29.80 "Hg3 mi
4:04 am32 °FLight snow. Low clouds.2 mph93%29.81 "Hg2 mi
3:00 am32 °FLight snow. Mostly cloudy.6 mph93%29.80 "Hg2 mi
2:00 am32 °FLight snow. Low clouds.8 mph100%29.81 "Hg3 mi
1:45 am32 °FLight snow. Mostly cloudy.12 mph100%29.81 "Hg2 mi
1:04 am32 °FLight rain. Low clouds.9 mph100%29.83 "Hg9 mi
12:55 am32 °FLight snow. Low clouds.8 mph93%29.83 "Hg3 mi
12:00 am32 °FLight snow. Mostly cloudy.12 mph100%29.84 "Hg1 mi
11:00 pm
Sun, Dec 4
32 °FLight snow. Low clouds.10 mph100%29.88 "Hg1 mi
10:56 pm32 °FLight snow. Low clouds.13 mph100%29.89 "Hg2 mi
10:00 pm32 °FLight snow. Mostly cloudy.14 mph100%29.92 "Hg1 mi
Weather by CustomWeather, © 2016

See weather overviewHow to use our weather pages